Weather History for KDBQ - May, 2014

Change the Weather History Date:

Tuesday, May 20, 2014

  Actual Average Record
Temperature  
Mean Temperature 73 °F 60 °F  
Max Temperature 85 °F 70 °F 93 °F (1934)
Min Temperature 60 °F 50 °F 33 °F (1924)
Degree Days  
Heating Degree Days 0 6  
Month to date heating degree days 214 172  
Since 1 July heating degree days 8314 6993  
Cooling Degree Days 8 1  
Month to date cooling degree days 15 12  
Year to date cooling degree days 15 17  
Growing Degree Days 22 (Base 50)    
Moisture  
Dew Point 62 °F    
Average Humidity 74    
Maximum Humidity 93    
Minimum Humidity 54    
Precipitation  
Precipitation 1.37 in 0.13 in 2.31 in (1912)
Month to date precipitation 2.22 2.67  
Year to date precipitation 11.83 11.35  
Snow  
Snow 0.00 in 0.00 in - ()
Month to date snowfall T 0.1  
Since 1 July snowfall 63.3 42.0  
Snow Depth 0.00 in    
Sea Level Pressure  
Sea Level Pressure 29.83 in    
Wind  
Wind Speed 8 mph (South)    
Max Wind Speed 25 mph    
Max Gust Speed 32 mph    
Visibility 8 miles    
Events Fog , Rain , Thunderstorm    
T = Trace of Precipitation, MM = Missing Value Source: NWS Daily Summary

Daily Weather History Graph

Daily Weather History Graph

Search for Another Location

Airport or City:

Trip Planner

Search our weather history database for the weather conditions in past years. The results will help you decide how hot, cold, wet, or windy it might be!

Date:

Astronomy

May. 20, 2014 Rise Set
Actual Time 5:36 AM CDT 8:22 PM CDT
Civil Twilight 5:03 AM CDT 8:55 PM CDT
Nautical Twilight 4:22 AM CDT 9:37 PM CDT
Astronomical Twilight 3:35 AM CDT 10:24 PM CDT
Moon 12:50 AM CDT (5/20) 11:47 AM CDT (5/20)
Length of Visible Light 15h 51m
Length of Day
14h 46m
Waning Gibbous, 60% of the Moon is Illuminated
May 20
Waning Gibbous
May 21
Last Quarter
May 28
New
Jun 5
First Quarter
Jun 12
Full

Hourly Weather History & Observations

Time (CDT) Temp. Heat Index Dew Point Humidity Pressure Visibility Wind Dir Wind Speed Gust Speed Precip Events Conditions
12:53 AM 63.0 °F - 57.0 °F 81% 29.82 in 10.0 mi South 13.8 mph - N/A   Scattered Clouds
1:53 AM 62.1 °F - 57.9 °F 86% 29.81 in 10.0 mi South 12.7 mph - N/A   Partly Cloudy
2:53 AM 61.0 °F - 57.9 °F 90% 29.81 in 10.0 mi South 10.4 mph - N/A   Overcast
3:53 AM 60.8 °F - 57.2 °F 88% 29.81 in 10.0 mi South 11.5 mph - N/A   Partly Cloudy
4:53 AM 61.0 °F - 57.9 °F 90% 29.81 in 10.0 mi South 10.4 mph - N/A   Scattered Clouds
5:53 AM 61.0 °F - 57.0 °F 87% 29.82 in 10.0 mi South 10.4 mph - N/A   Partly Cloudy
6:53 AM 60.8 °F - 57.2 °F 88% 29.84 in 9.0 mi SSW 8.1 mph - N/A   Clear
7:53 AM 64.9 °F - 59.0 °F 81% 29.83 in 10.0 mi SW 11.5 mph - N/A   Clear
8:53 AM 68.0 °F - 59.0 °F 73% 29.83 in 10.0 mi SW 15.0 mph - N/A   Clear
9:53 AM 72.0 °F - 61.0 °F 68% 29.83 in 10.0 mi SW 11.5 mph - N/A   Clear
10:53 AM 75.0 °F - 63.0 °F 66% 29.84 in 10.0 mi WSW 9.2 mph - N/A   Clear
11:53 AM 77.0 °F - 63.0 °F 62% 29.84 in 10.0 mi SW 8.1 mph - N/A   Clear
12:53 PM 80.1 °F 81.2 °F 62.1 °F 54% 29.83 in 10.0 mi WSW 5.8 mph - N/A   Clear
1:53 PM 82.0 °F 83.4 °F 64.0 °F 54% 29.82 in 10.0 mi Variable 6.9 mph - N/A   Clear
2:53 PM 84.0 °F 84.9 °F 63.0 °F 49% 29.82 in 1.2 mi Calm Calm - 0.00 in Rain Light Rain
3:08 PM 84.0 °F 84.9 °F 63.0 °F 49% 29.83 in 10.0 mi NNE 3.5 mph - 0.00 in   Partly Cloudy
3:53 PM 82.4 °F 83.9 °F 64.4 °F 54% 29.83 in 10.0 mi Calm Calm - N/A   Overcast
4:14 PM 80.1 °F 82.3 °F 66.9 °F 64% 29.82 in 10.0 mi North 4.6 mph - N/A Thunderstorm Overcast
4:23 PM 80.1 °F 81.7 °F 64.0 °F 58% 29.81 in 10.0 mi ENE 3.5 mph - 0.00 in Rain , Thunderstorm Light Thunderstorms and Rain
4:40 PM 73.0 °F - 64.0 °F 73% 29.84 in 1.8 mi NNW 15.0 mph - 0.08 in Rain , Thunderstorm Heavy Thunderstorms and Rain
4:48 PM 69.8 °F - 64.4 °F 83% 29.85 in 0.5 mi SW 9.2 mph 29.9 mph 0.47 in Rain , Thunderstorm Heavy Thunderstorms and Rain
4:49 PM 69.8 °F - 64.4 °F 83% 29.85 in 0.2 mi SW 12.7 mph 29.9 mph 0.51 in Rain , Thunderstorm Heavy Thunderstorms and Rain
4:53 PM 66.9 °F - 64.0 °F 90% 29.84 in 0.2 mi SSW 13.8 mph 23.0 mph 0.71 in Fog , Rain , Thunderstorm Heavy Thunderstorms and Rain
4:56 PM 66.9 °F - 64.0 °F 90% 29.85 in 0.5 mi SE 15.0 mph 23.0 mph 0.16 in Fog , Rain , Thunderstorm Heavy Thunderstorms and Rain
5:04 PM 64.9 °F - 63.0 °F 93% 29.83 in 1.0 mi SE 13.8 mph 32.2 mph 0.37 in Rain , Thunderstorm Heavy Thunderstorms and Rain
5:11 PM 64.9 °F - 61.0 °F 87% 29.84 in 4.0 mi ESE 16.1 mph 21.9 mph 0.38 in Rain , Thunderstorm Heavy Thunderstorms and Rain
5:32 PM 68.0 °F - 62.1 °F 81% 29.84 in 10.0 mi ESE 12.7 mph - 0.38 in Rain , Thunderstorm Light Rain
5:50 PM 69.8 °F - 64.4 °F 83% 29.84 in 10.0 mi ESE 9.2 mph - 0.38 in Rain , Thunderstorm Light Thunderstorms and Rain
5:53 PM 70.0 °F - 64.0 °F 81% 29.84 in 8.0 mi Variable 6.9 mph - 0.38 in Rain , Thunderstorm Thunderstorms and Rain
6:01 PM 68.0 °F - 64.9 °F 90% 29.84 in 1.5 mi South 17.3 mph - 0.07 in Rain , Thunderstorm Heavy Thunderstorms and Rain
6:11 PM 69.1 °F - 64.9 °F 87% 29.82 in 3.0 mi SE 11.5 mph - 0.19 in Rain , Thunderstorm Light Thunderstorms and Rain
6:51 PM 69.8 °F - 64.4 °F 83% 29.82 in 10.0 mi SE 6.9 mph - 0.28 in Rain Light Rain
6:53 PM 69.1 °F - 63.0 °F 81% 29.81 in 10.0 mi SE 8.1 mph - 0.28 in   Overcast
7:17 PM 69.1 °F - 63.0 °F 81% 29.82 in 10.0 mi Calm Calm - 0.00 in Thunderstorm Overcast
7:28 PM 69.1 °F - 64.9 °F 87% 29.83 in 10.0 mi WSW 5.8 mph - 0.00 in Thunderstorm Thunderstorm
7:50 PM 68.0 °F - 66.2 °F 94% 29.82 in 10.0 mi Calm Calm - 0.00 in Thunderstorm Mostly Cloudy
7:53 PM 68.0 °F - 64.9 °F 90% 29.82 in 10.0 mi SSW 6.9 mph - 0.00 in Thunderstorm Mostly Cloudy
8:05 PM 66.9 °F - 63.0 °F 87% 29.82 in 10.0 mi SSE 6.9 mph - N/A   Mostly Cloudy
8:53 PM 66.0 °F - 63.0 °F 90% 29.83 in 10.0 mi SW 11.5 mph - N/A Thunderstorm Mostly Cloudy
9:13 PM 66.0 °F - 64.0 °F 93% 29.82 in 10.0 mi SE 11.5 mph - 0.00 in Rain , Thunderstorm Light Rain
9:43 PM 66.0 °F - 63.0 °F 90% 29.85 in 10.0 mi WSW 5.8 mph - 0.00 in   Clear
9:53 PM 64.9 °F - 63.0 °F 93% 29.83 in 10.0 mi West 8.1 mph - 0.00 in   Clear
10:53 PM 66.0 °F - 62.1 °F 87% 29.81 in 10.0 mi Calm Calm - N/A   Partly Cloudy
11:53 PM 62.1 °F - 60.1 °F 93% 29.84 in 10.0 mi North 3.5 mph - N/A   Clear